VIR19Z EGLL-KSFO

Flight info

Callsign VIR19Z
Flight time N/A
Altitude 36000
Route CPT L9 DIDZA N14 OKTAD DCT MEDOG DCT KRAGY DCT PEMOB DCT VATRY DCT DIRUM DCT CON DCT SUNOT/M084F360 DCT 59N020W 61N030W 61N040W 62N050W/M084F380 DCT EMBOK DCT KAGLY/N0490F380 DCT DUTUM DCT YFB DCT BODRA DCT 60N089W/N0497F400 55N101W DCT TAGOT DCT WALSH DCT COUTS DCT BKE DCT RBL/N0474F410 DCT MRRLO BDEGA4
Aircraft B789/H-SDE1E2E3FGHIJ2J3J4J5M1RWXY/LB1D1

Departure

Time 2026-05-08 06:12
Airport London Heathrow Airport (EGLL)

Arrival

Time N/A
Airport San Francisco International Airport (KSFO)
Time Latitude Longitude Altitude Speed Heading
2026-05-08 05:42 51.47211 -0.46256 94 ft 0 kts 56°
2026-05-08 06:02 51.47206 -0.46268 93 ft 4 kts 56°
2026-05-08 06:02 51.47192 -0.46302 91 ft 2 kts 56°
2026-05-08 06:03 51.47179 -0.46327 93 ft 4 kts 31°
2026-05-08 06:03 51.47162 -0.46335 93 ft 4 kts 342°
2026-05-08 06:03 51.47142 -0.46317 92 ft 4 kts 326°
2026-05-08 06:03 51.47125 -0.46298 92 ft 0 kts 326°
2026-05-08 06:06 51.47142 -0.46317 92 ft 8 kts 326°
2026-05-08 06:06 51.47206 -0.46387 93 ft 12 kts 326°
2026-05-08 06:06 51.47238 -0.46487 93 ft 12 kts 271°
2026-05-08 06:06 51.47238 -0.46677 91 ft 19 kts 270°
2026-05-08 06:07 51.47205 -0.46853 95 ft 15 kts 207°
2026-05-08 06:07 51.47094 -0.46863 92 ft 21 kts 179°
2026-05-08 06:07 51.46937 -0.46863 91 ft 22 kts 180°
2026-05-08 06:07 51.46784 -0.46862 94 ft 21 kts 180°
2026-05-08 06:08 51.46661 -0.46901 96 ft 12 kts 239°
2026-05-08 06:08 51.46657 -0.47017 95 ft 14 kts 271°
2026-05-08 06:08 51.46656 -0.47182 94 ft 15 kts 269°
2026-05-08 06:08 51.46656 -0.47346 94 ft 15 kts 270°
2026-05-08 06:09 51.46655 -0.47550 94 ft 21 kts 270°
2026-05-08 06:09 51.46655 -0.47792 94 ft 23 kts 270°
2026-05-08 06:09 51.46653 -0.48045 91 ft 22 kts 270°
2026-05-08 06:09 51.46654 -0.48283 92 ft 21 kts 269°
2026-05-08 06:10 51.46622 -0.48462 96 ft 10 kts 204°
2026-05-08 06:10 51.46555 -0.48468 92 ft 13 kts 181°
2026-05-08 06:10 51.46489 -0.48423 95 ft 10 kts 116°
2026-05-08 06:10 51.46482 -0.48199 95 ft 38 kts 91°
2026-05-08 06:11 51.46481 -0.47738 91 ft 45 kts 90°
2026-05-08 06:11 51.46482 -0.47012 95 ft 90 kts 89°
2026-05-08 06:11 51.46488 -0.45725 93 ft 141 kts 89°
2026-05-08 06:11 51.46495 -0.43927 170 ft 174 kts 90°
2026-05-08 06:12 51.46491 -0.42160 1080 ft 152 kts 91°
2026-05-08 06:12 51.46113 -0.40375 978 ft 198 kts 135°
2026-05-08 06:12 51.44812 -0.39694 1729 ft 195 kts 184°
2026-05-08 06:12 51.43539 -0.40454 2454 ft 212 kts 218°
2026-05-08 06:13 51.42622 -0.42500 2820 ft 242 kts 240°
2026-05-08 06:13 51.41783 -0.44990 3474 ft 256 kts 238°
2026-05-08 06:13 51.40856 -0.47431 4532 ft 258 kts 238°
2026-05-08 06:13 51.40408 -0.50203 5449 ft 264 kts 274°
2026-05-08 06:14 51.40811 -0.53177 6003 ft 282 kts 286°
2026-05-08 06:14 51.41390 -0.56178 6076 ft 280 kts 284°
2026-05-08 06:14 51.41830 -0.59153 6731 ft 274 kts 280°
2026-05-08 06:14 51.42160 -0.62173 7632 ft 272 kts 278°
2026-05-08 06:15 51.42499 -0.65158 8618 ft 274 kts 279°
2026-05-08 06:15 51.42873 -0.68165 9587 ft 275 kts 279°
2026-05-08 06:15 51.43249 -0.71185 10394 ft 282 kts 279°
2026-05-08 06:15 51.43639 -0.74421 10598 ft 310 kts 279°
2026-05-08 06:16 51.44064 -0.77941 10898 ft 331 kts 279°
2026-05-08 06:16 51.44510 -0.81556 11816 ft 332 kts 279°
2026-05-08 06:16 51.44959 -0.85219 12589 ft 337 kts 279°
2026-05-08 06:16 51.45410 -0.88937 13397 ft 342 kts 279°
2026-05-08 06:17 51.46275 -0.96549 14837 ft 351 kts 278°
2026-05-08 06:17 51.46716 -1.00430 15504 ft 357 kts 278°
2026-05-08 06:17 51.47170 -1.04373 16215 ft 361 kts 278°
2026-05-08 06:18 51.47623 -1.08347 16900 ft 365 kts 278°
2026-05-08 06:18 51.48079 -1.12377 17589 ft 369 kts 278°
2026-05-08 06:18 51.48538 -1.16455 18270 ft 373 kts 278°
2026-05-08 06:18 51.49212 -1.20500 18837 ft 380 kts 293°
2026-05-08 06:19 51.50630 -1.24099 19446 ft 386 kts 311°
2026-05-08 06:19 51.52555 -1.27141 19984 ft 391 kts 314°
2026-05-08 06:19 51.54546 -1.30135 20597 ft 393 kts 315°
2026-05-08 06:19 51.56564 -1.33139 21174 ft 396 kts 315°
2026-05-08 06:20 51.58577 -1.36190 21744 ft 399 kts 314°
2026-05-08 06:20 51.60532 -1.39360 22266 ft 400 kts 305°
2026-05-08 06:20 51.61996 -1.43144 22759 ft 400 kts 297°
2026-05-08 06:20 51.63324 -1.47094 23301 ft 403 kts 296°
2026-05-08 06:21 51.64629 -1.51107 23764 ft 406 kts 296°
2026-05-08 06:21 51.65940 -1.55079 24194 ft 408 kts 297°
2026-05-08 06:21 51.67293 -1.59108 24628 ft 410 kts 297°
2026-05-08 06:21 51.68647 -1.63169 25057 ft 412 kts 297°
2026-05-08 06:22 51.69939 -1.67288 25459 ft 413 kts 289°
2026-05-08 06:22 51.70663 -1.71754 25846 ft 413 kts 276°
2026-05-08 06:22 51.71006 -1.76362 26198 ft 415 kts 276°
2026-05-08 06:22 51.71334 -1.80987 26605 ft 417 kts 276°
2026-05-08 06:23 51.71697 -1.85638 26969 ft 419 kts 281°
2026-05-08 06:23 51.72390 -1.90225 27286 ft 422 kts 283°
2026-05-08 06:23 51.73076 -1.94829 27692 ft 423 kts 283°
2026-05-08 06:23 51.73752 -1.99444 28139 ft 424 kts 284°
2026-05-08 06:24 51.74437 -2.04079 28499 ft 426 kts 284°
2026-05-08 06:24 51.75130 -2.08740 28868 ft 427 kts 284°
2026-05-08 06:24 51.75818 -2.13404 29215 ft 429 kts 284°
2026-05-08 06:24 51.76506 -2.18110 29585 ft 431 kts 284°
2026-05-08 06:25 51.77195 -2.22824 29928 ft 433 kts 284°
2026-05-08 06:25 51.77888 -2.27569 30254 ft 435 kts 284°
2026-05-08 06:25 51.78580 -2.32322 30534 ft 436 kts 284°
2026-05-08 06:25 51.79271 -2.37097 30808 ft 438 kts 284°
2026-05-08 06:26 51.79966 -2.41907 31091 ft 439 kts 284°
2026-05-08 06:26 51.80657 -2.46708 31500 ft 437 kts 285°
2026-05-08 06:26 51.81342 -2.51475 31846 ft 437 kts 285°
2026-05-08 06:26 51.82029 -2.56267 32101 ft 438 kts 284°
2026-05-08 06:27 51.82688 -2.61078 32386 ft 440 kts 284°
2026-05-08 06:27 51.83330 -2.65932 32630 ft 441 kts 284°
2026-05-08 06:27 51.83981 -2.70776 32886 ft 442 kts 284°
2026-05-08 06:27 51.84645 -2.75631 33159 ft 443 kts 284°
2026-05-08 06:28 51.85306 -2.80515 33420 ft 444 kts 283°
2026-05-08 06:28 51.85958 -2.85408 33688 ft 445 kts 283°
2026-05-08 06:28 51.86609 -2.90306 33939 ft 447 kts 283°
2026-05-08 06:28 51.87264 -2.95213 34265 ft 444 kts 283°
2026-05-08 06:29 51.87914 -3.00098 34498 ft 445 kts 283°
2026-05-08 06:29 51.88561 -3.04993 34699 ft 446 kts 283°
2026-05-08 06:29 51.89207 -3.09907 34898 ft 446 kts 283°
2026-05-08 06:29 51.89854 -3.14831 35072 ft 447 kts 283°
2026-05-08 06:30 51.90500 -3.19759 35318 ft 447 kts 283°
2026-05-08 06:30 51.91143 -3.24691 35525 ft 448 kts 282°
2026-05-08 06:30 51.91784 -3.29627 35721 ft 449 kts 282°
2026-05-08 06:30 51.92426 -3.34582 35873 ft 450 kts 282°
2026-05-08 06:31 51.93067 -3.39554 36039 ft 452 kts 282°
2026-05-08 06:31 51.93712 -3.44564 36044 ft 455 kts 282°
2026-05-08 06:31 51.94984 -3.54515 36038 ft 447 kts 282°
2026-05-08 06:32 51.96237 -3.64379 36042 ft 447 kts 282°
2026-05-08 06:32 51.97481 -3.74253 36030 ft 448 kts 282°
2026-05-08 06:33 51.98723 -3.84172 36054 ft 449 kts 281°
2026-05-08 06:33 51.99955 -3.94087 36042 ft 448 kts 281°
2026-05-08 06:34 52.01171 -4.03955 36050 ft 444 kts 281°
2026-05-08 06:34 52.02369 -4.13739 36044 ft 445 kts 281°
2026-05-08 06:35 52.03569 -4.23611 36046 ft 447 kts 281°
2026-05-08 06:35 52.04766 -4.33532 36043 ft 447 kts 281°
2026-05-08 06:36 52.05952 -4.43437 36052 ft 446 kts 280°
2026-05-08 06:36 52.07127 -4.53326 36053 ft 445 kts 280°
2026-05-08 06:37 52.08292 -4.63205 36043 ft 445 kts 280°
2026-05-08 06:37 52.09450 -4.73095 36051 ft 445 kts 280°
2026-05-08 06:38 52.10598 -4.82979 36044 ft 445 kts 279°
2026-05-08 06:38 52.11738 -4.92874 36051 ft 445 kts 279°
2026-05-08 06:39 52.12924 -5.02776 36051 ft 446 kts 285°
2026-05-08 06:39 52.15444 -5.11996 36058 ft 451 kts 301°
2026-05-08 06:40 52.19669 -5.19634 36057 ft 461 kts 318°
2026-05-08 06:40 52.24250 -5.24196 36067 ft 468 kts 328°
2026-05-08 06:41 52.30066 -5.28999 36047 ft 467 kts 328°
2026-05-08 06:41 52.35874 -5.33770 36047 ft 467 kts 328°
2026-05-08 06:42 52.39700 -5.36934 36044 ft 467 kts 328°
2026-05-08 06:43 52.42692 -5.39408 36050 ft 468 kts 328°
2026-05-08 06:44 52.48474 -5.44203 36055 ft 469 kts 328°